Location: Zagreb
(45.8000°N, 16.0000°E)
Time: 14:23:02
(UTC+02:00)

Transit 2A - Pass Details

Date: 14 August 2022
Orbit: 601 x 956 km, 66.7° (Epoch: 25 September)

Event Time Altitude Azimuth Distance (km) Brightness Sun altitude
Rises 10:37:30 0° 169° (S) 3,169 9.6 46.5°
Reaches altitude 10° 10:40:36 10° 151° (SSE) 2,181 9.2 46.9°
Maximum altitude 10:43:52 18° 110° (ESE) 1,646 8.9 47.4°
Drops below altitude 10° 10:46:59 10° 67° (ENE) 2,063 8.7 47.8°
Sets 10:49:48 0° 48° (NE) 2,931 9.1 48.2°
